YUZGU 12 (RS6S)

Last updated on Tue Jan 24 2023 00:02:06 GMT+0000 (Coordinated Universal Time)

1 53311U 98067TW 23023.15989331 .04918635 11937-4 16557-2 0 9999 2 53311 51.6176 306.3303 0006787 198.3826 161.6950 16.24849148 29112

Satellite not in orbit